Time,TemperatureF,DewpointF,PressureIn,WindDirection,WindDirectionDegrees,WindSpeedMPH,WindSpeedGustMPH,Humidity,HourlyPrecipIn,Conditions,Clouds,dailyrainin,SolarRadiationWatts/m^2,SoftwareType,DateUTC
2013-08-06 00:01:00,63.9,45.4,29.76,SSW,202,6.9,6.9,51,0.00,CLR,OVC,0.00,0.0,WeatherDisplay:10.37,2013-08-06 07:01:00,
2013-08-06 00:06:00,63.9,45.9,29.77,SE,135,4.6,4.6,52,0.00,CLR,OVC,0.00,0.0,WeatherDisplay:10.37,2013-08-06 07:06:00,
2013-08-06 00:11:00,63.9,45.9,29.77,SE,135,4.6,4.6,52,0.00,CLR,OVC,0.00,0.0,WeatherDisplay:10.37,2013-08-06 07:11:00,
2013-08-06 00:16:00,63.1,45.7,29.77,South,180,5.8,5.8,53,0.00,CLR,OVC,0.00,0.0,WeatherDisplay:10.37,2013-08-06 07:16:00,
2013-08-06 00:21:00,63.1,45.7,29.77,SW,225,3.5,3.7,53,0.00,CLR,OVC,0.00,0.0,WeatherDisplay:10.37,2013-08-06 07:21:00,
2013-08-06 00:26:00,63.0,45.6,29.77,SSE,158,6.9,6.9,53,0.00,CLR,OVC,0.00,0.0,WeatherDisplay:10.37,2013-08-06 07:26:00,
2013-08-06 00:31:00,62.8,46.4,29.77,SSW,202,5.8,5.8,55,0.00,CLR,OVC,0.00,0.0,WeatherDisplay:10.37,2013-08-06 07:31:00,
2013-08-06 00:36:00,62.8,45.9,29.77,SSE,158,3.5,3.5,54,0.00,CLR,OVC,0.00,0.0,WeatherDisplay:10.37,2013-08-06 07:36:00,
2013-08-06 00:41:00,62.6,45.7,29.77,SE,135,2.3,2.3,54,0.00,CLR,OVC,0.00,0.0,WeatherDisplay:10.37,2013-08-06 07:41:00,
2013-08-06 00:46:00,62.4,46.0,29.78,SSE,158,4.6,4.6,55,0.00,CLR,OVC,0.00,0.0,WeatherDisplay:10.37,2013-08-06 07:46:00,
2013-08-06 00:51:00,62.2,46.3,29.78,East,90,3.5,3.5,56,0.00,CLR,OVC,0.00,0.0,WeatherDisplay:10.37,2013-08-06 07:51:00,
2013-08-06 00:56:00,62.1,46.2,29.78,SSE,158,3.5,3.5,56,0.00,CLR,OVC,0.00,0.0,WeatherDisplay:10.37,2013-08-06 07:56:00,
2013-08-06 01:01:00,61.9,46.0,29.78,SW,225,3.5,3.5,56,0.00,CLR,OVC,0.00,0.0,WeatherDisplay:10.37,2013-08-06 08:01:00,
2013-08-06 01:06:00,61.7,46.3,29.77,South,180,6.9,6.9,57,0.00,CLR,OVC,0.00,0.0,WeatherDisplay:10.37,2013-08-06 08:06:00,
2013-08-06 01:11:00,61.5,46.6,29.77,South,180,8.1,8.1,58,0.00,CLR,OVC,0.00,0.0,WeatherDisplay:10.37,2013-08-06 08:11:00,
2013-08-06 01:16:00,61.3,46.4,29.77,South,180,6.9,6.9,58,0.00,CLR,OVC,0.00,0.0,WeatherDisplay:10.37,2013-08-06 08:16:00,
2013-08-06 01:21:00,61.3,46.4,29.77,NE,45,6.9,6.9,58,0.00,CLR,OVC,0.00,0.0,WeatherDisplay:10.37,2013-08-06 08:21:00,
2013-08-06 01:26:00,61.2,46.7,29.78,WSW,248,5.8,5.8,59,0.00,CLR,OVC,0.00,0.0,WeatherDisplay:10.37,2013-08-06 08:26:00,
2013-08-06 01:31:00,61.0,46.5,29.78,SSE,158,4.6,4.6,59,0.00,CLR,OVC,0.00,0.0,WeatherDisplay:10.37,2013-08-06 08:31:00,
2013-08-06 01:36:00,61.0,46.5,29.78,WSW,248,4.6,4.6,59,0.00,CLR,OVC,0.00,0.0,WeatherDisplay:10.37,2013-08-06 08:36:00,
2013-08-06 01:41:00,61.0,46.5,29.78,SE,135,2.3,2.6,59,0.00,CLR,OVC,0.00,0.0,WeatherDisplay:10.37,2013-08-06 08:41:00,
2013-08-06 01:46:00,60.8,46.4,29.77,SSE,158,4.6,4.6,59,0.00,CLR,OVC,0.00,0.0,WeatherDisplay:10.37,2013-08-06 08:46:00,
2013-08-06 01:51:00,60.6,47.1,29.77,SSE,158,3.5,3.5,61,0.00,CLR,OVC,0.00,0.0,WeatherDisplay:10.37,2013-08-06 08:51:00,
2013-08-06 01:56:00,60.6,47.5,29.77,South,180,5.8,5.8,62,0.00,CLR,OVC,0.00,0.0,WeatherDisplay:10.37,2013-08-06 08:56:00,
2013-08-06 02:01:00,60.6,47.1,29.77,SW,225,3.5,3.5,61,0.00,CLR,OVC,0.00,0.0,WeatherDisplay:10.37,2013-08-06 09:01:00,
2013-08-06 02:06:00,60.4,47.4,29.78,South,180,2.3,2.6,62,0.00,CLR,OVC,0.00,0.0,WeatherDisplay:10.37,2013-08-06 09:06:00,
2013-08-06 02:11:00,60.4,47.4,29.78,SSW,202,3.5,3.5,62,0.00,CLR,OVC,0.00,0.0,WeatherDisplay:10.37,2013-08-06 09:11:00,
2013-08-06 02:16:00,60.4,47.4,29.78,ESE,112,2.3,2.3,62,0.00,CLR,OVC,0.00,0.0,WeatherDisplay:10.37,2013-08-06 09:16:00,
2013-08-06 02:21:00,60.4,47.4,29.78,WSW,248,2.3,2.3,62,0.00,CLR,OVC,0.00,0.0,WeatherDisplay:10.37,2013-08-06 09:21:00,
2013-08-06 02:26:00,60.4,47.4,29.78,SW,225,2.3,2.3,62,0.00,CLR,OVC,0.00,0.0,WeatherDisplay:10.37,2013-08-06 09:26:00,
2013-08-06 02:31:00,60.3,47.6,29.78,SSE,158,3.5,3.5,63,0.00,CLR,OVC,0.00,0.0,WeatherDisplay:10.37,2013-08-06 09:31:00,
2013-08-06 02:36:00,60.1,47.4,29.78,WSW,248,3.5,3.5,63,0.00,CLR,OVC,0.00,0.0,WeatherDisplay:10.37,2013-08-06 09:36:00,
2013-08-06 02:41:00,60.1,47.4,29.78,NE,45,2.3,2.4,63,0.00,CLR,OVC,0.00,0.0,WeatherDisplay:10.37,2013-08-06 09:41:00,
2013-08-06 02:46:00,59.9,47.7,29.78,South,180,3.5,3.5,64,0.00,CLR,OVC,0.00,0.0,WeatherDisplay:10.37,2013-08-06 09:46:00,
2013-08-06 02:51:00,59.9,48.1,29.78,South,180,3.5,3.5,65,0.00,CLR,OVC,0.00,0.0,WeatherDisplay:10.37,2013-08-06 09:51:00,
2013-08-06 02:56:00,59.7,47.9,29.78,SSE,158,3.5,3.5,65,0.00,CLR,OVC,0.00,0.0,WeatherDisplay:10.37,2013-08-06 09:56:00,
2013-08-06 03:01:00,59.7,47.9,29.78,SSW,202,4.6,4.6,65,0.00,CLR,OVC,0.00,0.0,WeatherDisplay:10.37,2013-08-06 10:01:00,
2013-08-06 03:06:00,59.5,47.8,29.78,SSE,158,4.6,4.6,65,0.00,CLR,OVC,0.00,0.0,WeatherDisplay:10.37,2013-08-06 10:06:00,
2013-08-06 03:11:00,59.5,47.8,29.78,SSE,158,4.6,4.6,65,0.00,CLR,OVC,0.00,0.0,WeatherDisplay:10.37,2013-08-06 10:11:00,
2013-08-06 03:16:00,59.4,48.0,29.78,WSW,248,5.8,5.8,66,0.00,CLR,OVC,0.00,0.0,WeatherDisplay:10.37,2013-08-06 10:16:00,
2013-08-06 03:21:00,59.2,47.8,29.78,ESE,112,4.6,4.6,66,0.00,CLR,OVC,0.00,0.0,WeatherDisplay:10.37,2013-08-06 10:21:00,
2013-08-06 03:26:00,59.2,47.8,29.78,SW,225,3.5,3.5,66,0.00,CLR,OVC,0.00,0.0,WeatherDisplay:10.37,2013-08-06 10:26:00,
2013-08-06 03:31:00,59.2,47.8,29.78,SE,135,3.5,3.5,66,0.00,CLR,OVC,0.00,0.0,WeatherDisplay:10.37,2013-08-06 10:31:00,
2013-08-06 03:36:00,59.0,47.7,29.78,SSE,158,6.9,6.9,66,0.00,CLR,OVC,0.00,0.0,WeatherDisplay:10.37,2013-08-06 10:36:00,
2013-08-06 03:41:00,58.8,47.9,29.78,South,180,4.6,4.6,67,0.00,CLR,OVC,0.00,0.0,WeatherDisplay:10.37,2013-08-06 10:41:00,
2013-08-06 03:46:00,58.8,47.9,29.77,SSE,158,2.3,2.5,67,0.00,CLR,OVC,0.00,0.0,WeatherDisplay:10.37,2013-08-06 10:46:00,
2013-08-06 03:51:00,58.8,48.3,29.77,SSE,158,8.1,8.1,68,0.00,CLR,OVC,0.00,0.0,WeatherDisplay:10.37,2013-08-06 10:51:00,
2013-08-06 03:56:00,58.8,48.3,29.77,South,180,6.9,6.9,68,0.00,CLR,OVC,0.00,0.0,WeatherDisplay:10.37,2013-08-06 10:56:00,
2013-08-06 04:01:00,58.8,48.3,29.77,West,270,4.6,4.6,68,0.00,CLR,OVC,0.00,0.0,WeatherDisplay:10.37,2013-08-06 11:01:00,
2013-08-06 04:06:00,58.6,48.1,29.78,South,180,5.8,5.8,68,0.00,CLR,OVC,0.00,0.0,WeatherDisplay:10.37,2013-08-06 11:06:00,
2013-08-06 04:11:00,58.6,48.1,29.78,South,180,4.6,4.6,68,0.00,CLR,OVC,0.00,0.0,WeatherDisplay:10.37,2013-08-06 11:11:00,
2013-08-06 04:16:00,58.6,48.5,29.78,South,180,4.6,4.6,69,0.00,CLR,OVC,0.00,0.0,WeatherDisplay:10.37,2013-08-06 11:16:00,
2013-08-06 04:21:00,58.5,48.3,29.78,South,180,4.6,4.6,69,0.00,CLR,OVC,0.00,0.0,WeatherDisplay:10.37,2013-08-06 11:21:00,
2013-08-06 04:26:00,58.3,48.2,29.78,SW,225,5.8,5.8,69,0.00,CLR,OVC,0.00,0.0,WeatherDisplay:10.37,2013-08-06 11:26:00,
2013-08-06 04:31:00,58.5,48.3,29.78,SE,135,2.3,3.1,69,0.00,CLR,OVC,0.00,0.0,WeatherDisplay:10.37,2013-08-06 11:31:00,
2013-08-06 04:36:00,58.3,48.2,29.78,South,180,5.8,5.8,69,0.00,CLR,OVC,0.00,0.0,WeatherDisplay:10.37,2013-08-06 11:36:00,
2013-08-06 04:41:00,58.3,48.2,29.78,South,180,5.8,5.8,69,0.00,CLR,OVC,0.00,0.0,WeatherDisplay:10.37,2013-08-06 11:41:00,
2013-08-06 04:46:00,58.3,48.2,29.78,SSE,158,4.6,4.6,69,0.00,CLR,OVC,0.00,0.0,WeatherDisplay:10.37,2013-08-06 11:46:00,
2013-08-06 04:51:00,58.3,48.2,29.78,South,180,3.5,4.1,69,0.00,CLR,OVC,0.00,0.0,WeatherDisplay:10.37,2013-08-06 11:51:00,
2013-08-06 04:56:00,58.3,48.2,29.78,South,180,5.8,5.8,69,0.00,CLR,OVC,0.00,0.0,WeatherDisplay:10.37,2013-08-06 11:56:00,
2013-08-06 05:01:00,58.1,48.0,29.78,South,180,4.6,4.6,69,0.00,CLR,OVC,0.00,0.0,WeatherDisplay:10.37,2013-08-06 12:01:00,
2013-08-06 05:06:00,58.1,48.0,29.78,South,180,5.8,5.8,69,0.00,CLR,OVC,0.00,0.0,WeatherDisplay:10.37,2013-08-06 12:06:00,
2013-08-06 05:11:00,57.9,48.2,29.78,South,180,5.8,5.8,70,0.00,CLR,OVC,0.00,0.0,WeatherDisplay:10.37,2013-08-06 12:11:00,
2013-08-06 05:16:00,57.9,48.2,29.78,South,180,4.6,4.6,70,0.00,CLR,OVC,0.00,0.0,WeatherDisplay:10.37,2013-08-06 12:16:00,
2013-08-06 05:21:00,57.7,48.0,29.78,SE,135,2.6,2.6,70,0.00,CLR,OVC,0.00,0.0,WeatherDisplay:10.37,2013-08-06 12:21:00,
2013-08-06 05:26:00,57.7,48.4,29.78,South,180,2.9,2.9,71,0.00,CLR,OVC,0.00,0.0,WeatherDisplay:10.37,2013-08-06 12:26:00,
2013-08-06 05:31:00,57.7,48.0,29.78,SW,225,3.8,3.8,70,0.00,CLR,OVC,0.00,0.0,WeatherDisplay:10.37,2013-08-06 12:31:00,
2013-08-06 05:36:00,57.7,48.0,29.78,WSW,248,2.6,2.6,70,0.00,CLR,OVC,0.00,0.0,WeatherDisplay:10.37,2013-08-06 12:36:00,
2013-08-06 05:41:00,57.6,47.8,29.78,South,180,5.8,5.8,70,0.00,CLR,OVC,0.00,0.0,WeatherDisplay:10.37,2013-08-06 12:41:00,
2013-08-06 05:46:00,57.6,47.8,29.78,SSE,158,2.3,2.3,70,0.00,CLR,OVC,0.00,0.0,WeatherDisplay:10.37,2013-08-06 12:46:00,
2013-08-06 05:51:00,57.6,47.8,29.78,South,180,3.5,3.5,70,0.00,CLR,OVC,0.00,0.0,WeatherDisplay:10.37,2013-08-06 12:51:00,
2013-08-06 05:56:00,57.4,47.7,29.78,South,180,2.3,2.3,70,0.00,CLR,OVC,0.00,0.0,WeatherDisplay:10.37,2013-08-06 12:56:00,
2013-08-06 06:01:00,57.4,48.1,29.78,South,180,2.8,2.8,71,0.00,CLR,OVC,0.00,0.0,WeatherDisplay:10.37,2013-08-06 13:01:00,
2013-08-06 06:06:00,57.4,48.1,29.80,South,180,2.8,2.8,71,0.00,CLR,OVC,0.00,0.0,WeatherDisplay:10.37,2013-08-06 13:06:00,
2013-08-06 06:11:00,57.6,47.8,29.80,South,180,3.7,3.7,70,0.00,CLR,OVC,0.00,0.0,WeatherDisplay:10.37,2013-08-06 13:11:00,
2013-08-06 06:16:00,57.6,47.8,29.80,South,180,5.8,5.8,70,0.00,CLR,OVC,0.00,0.0,WeatherDisplay:10.37,2013-08-06 13:16:00,
2013-08-06 06:21:00,57.6,47.8,29.80,South,180,2.9,2.9,70,0.00,CLR,OVC,0.00,0.0,WeatherDisplay:10.37,2013-08-06 13:21:00,
2013-08-06 06:26:00,57.4,47.7,29.80,SW,225,5.8,5.8,70,0.00,CLR,OVC,0.00,0.0,WeatherDisplay:10.37,2013-08-06 13:26:00,
2013-08-06 06:31:00,57.4,47.7,29.80,SW,225,3.5,3.5,70,0.00,CLR,OVC,0.00,0.0,WeatherDisplay:10.37,2013-08-06 13:31:00,
2013-08-06 06:36:00,57.2,47.5,29.80,SW,225,4.6,4.6,70,0.00,CLR,OVC,0.00,0.0,WeatherDisplay:10.37,2013-08-06 13:36:00,
2013-08-06 06:41:00,57.2,47.9,29.80,NW,315,5.8,5.8,71,0.00,CLR,OVC,0.00,0.0,WeatherDisplay:10.37,2013-08-06 13:41:00,
2013-08-06 06:46:00,57.4,48.1,29.81,SSE,158,2.3,2.3,71,0.00,CLR,OVC,0.00,0.0,WeatherDisplay:10.37,2013-08-06 13:46:00,
2013-08-06 06:51:00,57.4,48.1,29.81,South,180,3.6,3.6,71,0.00,CLR,OVC,0.00,0.0,WeatherDisplay:10.37,2013-08-06 13:51:00,
2013-08-06 06:56:00,57.6,48.2,29.81,SW,225,3.5,3.5,71,0.00,CLR,OVC,0.00,0.0,WeatherDisplay:10.37,2013-08-06 13:56:00,
2013-08-06 07:01:00,57.6,48.2,29.81,SW,225,3.5,3.5,71,0.00,CLR,OVC,0.00,0.0,WeatherDisplay:10.37,2013-08-06 14:01:00,
2013-08-06 07:06:00,57.6,48.6,29.81,SW,225,3.5,3.5,72,0.00,CLR,OVC,0.00,0.0,WeatherDisplay:10.37,2013-08-06 14:06:00,
2013-08-06 07:11:00,57.7,48.8,29.81,SSW,202,5.3,5.3,72,0.00,CLR,OVC,0.00,0.0,WeatherDisplay:10.37,2013-08-06 14:11:00,
2013-08-06 07:16:00,57.7,48.8,29.81,SW,225,4.6,4.6,72,0.00,CLR,OVC,0.00,0.0,WeatherDisplay:10.37,2013-08-06 14:16:00,
2013-08-06 07:21:00,57.6,48.6,29.81,SW,225,4.6,4.6,72,0.00,CLR,OVC,0.00,0.0,WeatherDisplay:10.37,2013-08-06 14:21:00,
2013-08-06 07:26:00,57.7,49.1,29.82,WSW,248,5.8,5.8,73,0.00,CLR,OVC,0.00,0.0,WeatherDisplay:10.37,2013-08-06 14:26:00,
2013-08-06 07:31:00,57.9,49.3,29.82,SW,225,5.8,5.8,73,0.00,CLR,OVC,0.00,0.0,WeatherDisplay:10.37,2013-08-06 14:31:00,
2013-08-06 07:36:00,58.1,49.5,29.82,SW,225,6.9,6.9,73,0.00,CLR,OVC,0.00,0.0,WeatherDisplay:10.37,2013-08-06 14:36:00,
2013-08-06 07:41:00,58.3,49.7,29.82,SW,225,4.6,4.6,73,0.00,CLR,OVC,0.00,0.0,WeatherDisplay:10.37,2013-08-06 14:41:00,
2013-08-06 07:46:00,58.5,49.5,29.82,South,180,5.8,5.8,72,0.00,CLR,OVC,0.00,0.0,WeatherDisplay:10.37,2013-08-06 14:46:00,
2013-08-06 07:51:00,62.8,53.2,29.82,West,270,5.8,5.8,71,0.00,CLR,OVC,0.00,0.0,WeatherDisplay:10.37,2013-08-06 14:51:00,
2013-08-06 07:56:00,67.3,56.8,29.82,South,180,2.6,2.8,69,0.00,CLR,OVC,0.00,0.0,WeatherDisplay:10.37,2013-08-06 14:56:00,
2013-08-06 08:01:00,72.0,56.8,29.82,West,270,3.5,3.5,59,0.00,CLR,OVC,0.00,0.0,WeatherDisplay:10.37,2013-08-06 15:01:00,
2013-08-06 08:02:00,72.0,56.8,29.82,South,180,3.5,3.5,59,0.00,CLR,OVC,0.00,0.0,WeatherDisplay:10.37,2013-08-06 15:02:00,
2013-08-06 08:07:00,74.1,56.9,29.82,SW,225,4.6,4.6,55,0.00,CLR,OVC,0.00,0.0,WeatherDisplay:10.37,2013-08-06 15:07:00,
2013-08-06 08:12:00,76.6,54.9,29.82,SW,225,3.5,3.5,47,0.00,CLR,OVC,0.00,0.0,WeatherDisplay:10.37,2013-08-06 15:12:00,
2013-08-06 08:17:00,77.7,53.4,29.82,South,180,2.5,3.0,43,0.00,CLR,OVC,0.00,0.0,WeatherDisplay:10.37,2013-08-06 15:17:00,
2013-08-06 08:22:00,79.9,52.0,29.82,East,90,4.8,4.8,38,0.00,CLR,OVC,0.00,0.0,WeatherDisplay:10.37,2013-08-06 15:22:00,
2013-08-06 08:27:00,77.5,47.7,29.83,South,180,4.6,4.6,35,0.00,CLR,OVC,0.00,0.0,WeatherDisplay:10.37,2013-08-06 15:27:00,
2013-08-06 08:32:00,75.4,45.1,29.83,SSW,202,4.6,4.6,34,0.00,CLR,OVC,0.00,0.0,WeatherDisplay:10.37,2013-08-06 15:32:00,
2013-08-06 08:37:00,73.8,45.1,29.83,West,270,4.6,4.6,36,0.00,CLR,OVC,0.00,0.0,WeatherDisplay:10.37,2013-08-06 15:37:00,
2013-08-06 08:42:00,73.2,46.8,29.83,SSW,202,6.9,6.9,39,0.00,CLR,OVC,0.00,0.0,WeatherDisplay:10.37,2013-08-06 15:42:00,
2013-08-06 08:47:00,73.0,46.6,29.84,SW,225,4.6,4.6,39,0.00,CLR,OVC,0.00,0.0,WeatherDisplay:10.37,2013-08-06 15:47:00,
2013-08-06 08:52:00,73.4,46.9,29.84,ESE,112,4.6,4.6,39,0.00,CLR,OVC,0.00,0.0,WeatherDisplay:10.37,2013-08-06 15:52:00,
2013-08-06 08:57:00,73.9,47.4,29.84,South,180,4.6,4.6,39,0.00,CLR,OVC,0.00,0.0,WeatherDisplay:10.37,2013-08-06 15:57:00,
2013-08-06 09:02:00,73.9,46.7,29.84,South,180,3.5,3.5,38,0.00,CLR,OVC,0.00,0.0,WeatherDisplay:10.37,2013-08-06 16:02:00,
2013-08-06 09:07:00,73.6,46.4,29.84,WSW,248,6.0,6.0,38,0.00,CLR,OVC,0.00,0.0,WeatherDisplay:10.37,2013-08-06 16:07:00,
2013-08-06 09:12:00,74.1,46.9,29.84,NNW,338,3.5,3.5,38,0.00,CLR,OVC,0.00,0.0,WeatherDisplay:10.37,2013-08-06 16:12:00,
2013-08-06 09:17:00,74.1,46.9,29.84,SW,225,3.9,3.9,38,0.00,CLR,OVC,0.00,0.0,WeatherDisplay:10.37,2013-08-06 16:17:00,
2013-08-06 09:22:00,74.3,47.0,29.84,NW,315,3.5,3.5,38,0.00,CLR,OVC,0.00,0.0,WeatherDisplay:10.37,2013-08-06 16:22:00,
2013-08-06 09:27:00,74.3,47.7,29.84,WSW,248,3.7,3.7,39,0.00,CLR,OVC,0.00,0.0,WeatherDisplay:10.37,2013-08-06 16:27:00,
2013-08-06 09:32:00,74.3,47.7,29.84,SSW,202,3.6,3.6,39,0.00,CLR,OVC,0.00,0.0,WeatherDisplay:10.37,2013-08-06 16:32:00,
2013-08-06 09:37:00,74.3,47.7,29.84,WSW,248,4.6,4.6,39,0.00,CLR,OVC,0.00,0.0,WeatherDisplay:10.37,2013-08-06 16:37:00,
2013-08-06 09:42:00,74.7,48.1,29.84,South,180,2.3,2.6,39,0.00,CLR,OVC,0.00,0.0,WeatherDisplay:10.37,2013-08-06 16:42:00,
2013-08-06 09:47:00,74.5,47.9,29.83,WSW,248,7.2,7.2,39,0.00,CLR,OVC,0.00,0.0,WeatherDisplay:10.37,2013-08-06 16:47:00,
2013-08-06 09:52:00,74.8,48.2,29.83,SW,225,5.8,5.8,39,0.00,CLR,OVC,0.00,0.0,WeatherDisplay:10.37,2013-08-06 16:52:00,
2013-08-06 09:57:00,74.5,47.2,29.83,WSW,248,6.9,6.9,38,0.00,CLR,OVC,0.00,0.0,WeatherDisplay:10.37,2013-08-06 16:57:00,
2013-08-06 10:02:00,74.8,48.2,29.83,South,180,5.8,5.8,39,0.00,CLR,OVC,0.00,0.0,WeatherDisplay:10.37,2013-08-06 17:02:00,
2013-08-06 10:07:00,75.0,48.4,29.84,SSE,158,5.1,5.1,39,0.00,CLR,OVC,0.00,0.0,WeatherDisplay:10.37,2013-08-06 17:07:00,
2013-08-06 10:12:00,75.0,47.7,29.84,South,180,6.9,6.9,38,0.00,CLR,OVC,0.00,0.0,WeatherDisplay:10.37,2013-08-06 17:12:00,
2013-08-06 10:17:00,75.2,47.8,29.84,South,180,3.5,4.3,38,0.00,CLR,OVC,0.00,0.0,WeatherDisplay:10.37,2013-08-06 17:17:00,
2013-08-06 10:22:00,75.4,48.0,29.84,SW,225,4.6,4.6,38,0.00,CLR,OVC,0.00,0.0,WeatherDisplay:10.37,2013-08-06 17:22:00,
2013-08-06 10:27:00,75.4,46.6,29.84,SW,225,8.1,8.1,36,0.00,CLR,OVC,0.00,0.0,WeatherDisplay:10.37,2013-08-06 17:27:00,
2013-08-06 10:32:00,75.6,46.0,29.84,NE,45,5.8,5.8,35,0.00,CLR,OVC,0.00,0.0,WeatherDisplay:10.37,2013-08-06 17:32:00,
2013-08-06 10:37:00,76.1,47.2,29.84,WSW,248,3.5,4.0,36,0.00,CLR,OVC,0.00,0.0,WeatherDisplay:10.37,2013-08-06 17:37:00,
2013-08-06 10:42:00,75.9,46.3,29.84,WSW,248,6.9,6.9,35,0.00,CLR,OVC,0.00,0.0,WeatherDisplay:10.37,2013-08-06 17:42:00,
2013-08-06 10:47:00,76.3,46.6,29.84,SSW,202,4.6,4.6,35,0.00,CLR,OVC,0.00,0.0,WeatherDisplay:10.37,2013-08-06 17:47:00,
2013-08-06 10:52:00,76.6,46.9,29.84,South,180,5.8,5.8,35,0.00,CLR,OVC,0.00,0.0,WeatherDisplay:10.37,2013-08-06 17:52:00,
2013-08-06 10:57:00,76.6,46.2,29.84,South,180,6.9,6.9,34,0.00,CLR,OVC,0.00,0.0,WeatherDisplay:10.37,2013-08-06 17:57:00,
2013-08-06 11:02:00,76.8,45.5,29.84,SW,225,6.9,6.9,33,0.00,CLR,OVC,0.00,0.0,WeatherDisplay:10.37,2013-08-06 18:02:00,
2013-08-06 11:07:00,77.0,45.7,29.83,WSW,248,8.1,8.1,33,0.00,CLR,OVC,0.00,0.0,WeatherDisplay:10.37,2013-08-06 18:07:00,
2013-08-06 11:12:00,77.4,46.0,29.83,South,180,8.1,8.1,33,0.00,CLR,OVC,0.00,0.0,WeatherDisplay:10.37,2013-08-06 18:12:00,
2013-08-06 11:17:00,78.1,46.6,29.83,WSW,248,6.6,6.6,33,0.00,CLR,OVC,0.00,0.0,WeatherDisplay:10.37,2013-08-06 18:17:00,
2013-08-06 11:22:00,77.7,44.7,29.83,SW,225,8.1,8.1,31,0.00,CLR,OVC,0.00,0.0,WeatherDisplay:10.37,2013-08-06 18:22:00,
2013-08-06 11:27:00,78.3,45.1,29.82,South,180,9.2,9.2,31,0.00,CLR,OVC,0.00,0.0,WeatherDisplay:10.37,2013-08-06 18:27:00,
2013-08-06 11:32:00,78.4,45.3,29.82,SW,225,8.1,8.1,31,0.00,CLR,OVC,0.00,0.0,WeatherDisplay:10.37,2013-08-06 18:32:00,
2013-08-06 11:37:00,78.6,45.4,29.82,South,180,5.8,5.8,31,0.00,CLR,OVC,0.00,0.0,WeatherDisplay:10.37,2013-08-06 18:37:00,
2013-08-06 11:42:00,79.0,45.8,29.82,West,270,6.9,6.9,31,0.00,CLR,OVC,0.00,0.0,WeatherDisplay:10.37,2013-08-06 18:42:00,
2013-08-06 11:47:00,79.2,45.9,29.82,SSE,158,5.8,5.8,31,0.00,CLR,OVC,0.00,0.0,WeatherDisplay:10.37,2013-08-06 18:47:00,
2013-08-06 11:52:00,79.7,45.5,29.82,WSW,248,5.8,5.8,30,0.00,CLR,OVC,0.00,0.0,WeatherDisplay:10.37,2013-08-06 18:52:00,
2013-08-06 11:57:00,80.1,45.8,29.82,WSW,248,5.8,5.8,30,0.00,CLR,OVC,0.00,0.0,WeatherDisplay:10.37,2013-08-06 18:57:00,
2013-08-06 12:02:00,80.2,45.1,29.82,West,270,9.2,9.2,29,0.00,CLR,OVC,0.00,0.0,WeatherDisplay:10.37,2013-08-06 19:02:00,
2013-08-06 12:07:00,80.2,45.1,29.82,West,270,5.8,5.8,29,0.00,CLR,OVC,0.00,0.0,WeatherDisplay:10.37,2013-08-06 19:07:00,
2013-08-06 12:12:00,80.2,45.1,29.82,WSW,248,5.8,5.8,29,0.00,CLR,OVC,0.00,0.0,WeatherDisplay:10.37,2013-08-06 19:12:00,
2013-08-06 12:17:00,81.1,44.0,29.82,SSW,202,6.9,6.9,27,0.00,CLR,OVC,0.00,0.0,WeatherDisplay:10.37,2013-08-06 19:17:00,
2013-08-06 12:22:00,81.3,44.1,29.82,SSW,202,5.8,5.8,27,0.00,CLR,OVC,0.00,0.0,WeatherDisplay:10.37,2013-08-06 19:22:00,
2013-08-06 12:27:00,81.7,44.4,29.82,South,180,4.6,4.6,27,0.00,CLR,OVC,0.00,0.0,WeatherDisplay:10.37,2013-08-06 19:27:00,
2013-08-06 12:32:00,82.2,46.8,29.82,SSW,202,3.5,3.9,29,0.00,CLR,OVC,0.00,0.0,WeatherDisplay:10.37,2013-08-06 19:32:00,
2013-08-06 12:37:00,82.4,44.1,29.82,SW,225,6.9,6.9,26,0.00,CLR,OVC,0.00,0.0,WeatherDisplay:10.37,2013-08-06 19:37:00,
2013-08-06 12:42:00,82.4,43.0,29.82,SSW,202,4.6,4.6,25,0.00,CLR,OVC,0.00,0.0,WeatherDisplay:10.37,2013-08-06 19:42:00,
2013-08-06 12:47:00,82.9,44.5,29.81,SE,135,3.5,4.0,26,0.00,CLR,OVC,0.00,0.0,WeatherDisplay:10.37,2013-08-06 19:47:00,
2013-08-06 12:52:00,83.1,43.6,29.81,SW,225,6.9,6.9,25,0.00,CLR,OVC,0.00,0.0,WeatherDisplay:10.37,2013-08-06 19:52:00,
2013-08-06 12:57:00,83.3,43.8,29.81,WSW,248,4.6,4.6,25,0.00,CLR,OVC,0.00,0.0,WeatherDisplay:10.37,2013-08-06 19:57:00,
2013-08-06 13:02:00,83.7,44.1,29.81,SSW,202,5.8,5.8,25,0.00,CLR,OVC,0.00,0.0,WeatherDisplay:10.37,2013-08-06 20:02:00,
2013-08-06 13:07:00,83.7,43.0,29.79,SSW,202,6.9,6.9,24,0.00,CLR,OVC,0.00,0.0,WeatherDisplay:10.37,2013-08-06 20:07:00,
2013-08-06 13:12:00,83.8,43.2,29.79,WSW,248,6.9,6.9,24,0.00,CLR,OVC,0.00,0.0,WeatherDisplay:10.37,2013-08-06 20:12:00,
2013-08-06 13:17:00,84.0,42.2,29.79,WSW,248,5.8,5.8,23,0.00,CLR,OVC,0.00,0.0,WeatherDisplay:10.37,2013-08-06 20:17:00,
2013-08-06 13:22:00,83.3,40.5,29.79,SW,225,6.9,6.9,22,0.00,CLR,OVC,0.00,0.0,WeatherDisplay:10.37,2013-08-06 20:22:00,
2013-08-06 13:27:00,83.8,42.1,29.79,WSW,248,4.6,5.1,23,0.00,CLR,OVC,0.00,0.0,WeatherDisplay:10.37,2013-08-06 20:27:00,
2013-08-06 13:32:00,84.0,42.2,29.79,WSW,248,9.5,9.5,23,0.00,CLR,OVC,0.00,0.0,WeatherDisplay:10.37,2013-08-06 20:32:00,
2013-08-06 13:37:00,84.2,42.4,29.79,WSW,248,8.1,8.1,23,0.00,CLR,OVC,0.00,0.0,WeatherDisplay:10.37,2013-08-06 20:37:00,
2013-08-06 13:42:00,84.2,41.2,29.79,South,180,9.2,9.2,22,0.00,CLR,OVC,0.00,0.0,WeatherDisplay:10.37,2013-08-06 20:42:00,
2013-08-06 13:47:00,84.2,41.2,29.79,SW,225,7.0,7.0,22,0.00,CLR,OVC,0.00,0.0,WeatherDisplay:10.37,2013-08-06 20:47:00,
2013-08-06 13:52:00,84.4,41.4,29.79,West,270,5.8,5.8,22,0.00,CLR,OVC,0.00,0.0,WeatherDisplay:10.37,2013-08-06 20:52:00,
2013-08-06 13:57:00,84.6,41.5,29.79,SW,225,10.4,10.4,22,0.00,CLR,OVC,0.00,0.0,WeatherDisplay:10.37,2013-08-06 20:57:00,
2013-08-06 14:02:00,84.7,40.5,29.79,SW,225,5.8,5.8,21,0.00,CLR,OVC,0.00,0.0,WeatherDisplay:10.37,2013-08-06 21:02:00,
2013-08-06 14:07:00,85.1,40.8,29.79,WSW,248,2.8,4.8,21,0.00,CLR,OVC,0.00,0.0,WeatherDisplay:10.37,2013-08-06 21:07:00,
2013-08-06 14:12:00,85.5,41.1,29.79,SW,225,6.9,6.9,21,0.00,CLR,OVC,0.00,0.0,WeatherDisplay:10.37,2013-08-06 21:12:00,
2013-08-06 14:17:00,85.6,41.2,29.79,SSW,202,3.6,4.5,21,0.00,CLR,OVC,0.00,0.0,WeatherDisplay:10.37,2013-08-06 21:17:00,
2013-08-06 14:22:00,86.0,41.5,29.79,WSW,248,9.2,9.2,21,0.00,CLR,OVC,0.00,0.0,WeatherDisplay:10.37,2013-08-06 21:22:00,
2013-08-06 14:27:00,86.2,41.7,29.78,South,180,7.2,7.2,21,0.00,CLR,OVC,0.00,0.0,WeatherDisplay:10.37,2013-08-06 21:27:00,
2013-08-06 14:32:00,86.4,41.8,29.78,SSE,158,6.9,6.9,21,0.00,CLR,OVC,0.00,0.0,WeatherDisplay:10.37,2013-08-06 21:32:00,
2013-08-06 14:37:00,86.4,40.5,29.78,WSW,248,5.8,5.8,20,0.00,CLR,OVC,0.00,0.0,WeatherDisplay:10.37,2013-08-06 21:37:00,
2013-08-06 14:42:00,86.9,42.3,29.78,SSW,202,8.1,8.1,21,0.00,CLR,OVC,0.00,0.0,WeatherDisplay:10.37,2013-08-06 21:42:00,
2013-08-06 14:47:00,86.9,41.0,29.77,SSE,158,4.6,4.6,20,0.00,CLR,OVC,0.00,0.0,WeatherDisplay:10.37,2013-08-06 21:47:00,
2013-08-06 14:52:00,86.2,40.4,29.77,WSW,248,3.5,4.0,20,0.00,CLR,OVC,0.00,0.0,WeatherDisplay:10.37,2013-08-06 21:52:00,
2013-08-06 14:57:00,86.2,40.4,29.77,WSW,248,6.9,6.9,20,0.00,CLR,OVC,0.00,0.0,WeatherDisplay:10.37,2013-08-06 21:57:00,
2013-08-06 15:02:00,86.9,39.7,29.77,SSW,202,8.1,8.1,19,0.00,CLR,OVC,0.00,0.0,WeatherDisplay:10.37,2013-08-06 22:02:00,
2013-08-06 15:07:00,86.9,35.3,29.76,NW,315,4.6,5.1,16,0.00,CLR,OVC,0.00,0.0,WeatherDisplay:10.37,2013-08-06 22:07:00,
2013-08-06 15:12:00,86.9,38.3,29.76,SW,225,5.8,5.8,18,0.00,CLR,OVC,0.00,0.0,WeatherDisplay:10.37,2013-08-06 22:12:00,
2013-08-06 15:17:00,86.9,38.3,29.76,SSW,202,4.6,4.8,18,0.00,CLR,OVC,0.00,0.0,WeatherDisplay:10.37,2013-08-06 22:17:00,
2013-08-06 15:22:00,87.3,32.2,29.76,SSW,202,13.8,13.8,14,0.00,CLR,OVC,0.00,0.0,WeatherDisplay:10.37,2013-08-06 22:22:00,
2013-08-06 15:27:00,87.1,32.1,29.75,SW,225,6.9,6.9,14,0.00,CLR,OVC,0.00,0.0,WeatherDisplay:10.37,2013-08-06 22:27:00,
2013-08-06 15:32:00,87.6,34.2,29.75,WSW,248,6.9,6.9,15,0.00,CLR,OVC,0.00,0.0,WeatherDisplay:10.37,2013-08-06 22:32:00,
2013-08-06 15:37:00,88.0,34.5,29.75,South,180,5.8,5.8,15,0.00,CLR,OVC,0.00,0.0,WeatherDisplay:10.37,2013-08-06 22:37:00,
2013-08-06 15:42:00,88.2,34.7,29.75,ESE,112,8.1,8.1,15,0.00,CLR,OVC,0.00,0.0,WeatherDisplay:10.37,2013-08-06 22:42:00,
2013-08-06 15:47:00,88.2,34.7,29.75,South,180,5.8,5.8,15,0.00,CLR,OVC,0.00,0.0,WeatherDisplay:10.37,2013-08-06 22:47:00,
2013-08-06 15:52:00,88.2,34.7,29.75,WSW,248,10.4,10.4,15,0.00,CLR,OVC,0.00,0.0,WeatherDisplay:10.37,2013-08-06 22:52:00,
2013-08-06 15:57:00,88.2,32.9,29.75,SSW,202,4.6,5.4,14,0.00,CLR,OVC,0.00,0.0,WeatherDisplay:10.37,2013-08-06 22:57:00,
2013-08-06 16:02:00,87.4,32.4,29.75,WSW,248,9.2,9.2,14,0.00,CLR,OVC,0.00,0.0,WeatherDisplay:10.37,2013-08-06 23:02:00,
2013-08-06 16:07:00,87.3,32.2,29.75,South,180,6.9,6.9,14,0.00,CLR,OVC,0.00,0.0,WeatherDisplay:10.37,2013-08-06 23:07:00,
2013-08-06 16:12:00,86.9,33.7,29.75,SSW,202,9.2,9.2,15,0.00,CLR,OVC,0.00,0.0,WeatherDisplay:10.37,2013-08-06 23:12:00,
2013-08-06 16:17:00,87.3,35.6,29.75,South,180,5.8,5.8,16,0.00,CLR,OVC,0.00,0.0,WeatherDisplay:10.37,2013-08-06 23:17:00,
2013-08-06 16:22:00,86.9,33.7,29.75,WSW,248,5.8,5.8,15,0.00,CLR,OVC,0.00,0.0,WeatherDisplay:10.37,2013-08-06 23:22:00,
2013-08-06 16:27:00,87.1,33.8,29.75,ENE,68,11.5,11.5,15,0.00,CLR,OVC,0.00,0.0,WeatherDisplay:10.37,2013-08-06 23:27:00,
2013-08-06 16:32:00,87.1,35.4,29.75,SSE,158,6.9,6.9,16,0.00,CLR,OVC,0.00,0.0,WeatherDisplay:10.37,2013-08-06 23:32:00,
2013-08-06 16:37:00,87.3,37.1,29.75,WSW,248,6.9,6.9,17,0.00,CLR,OVC,0.00,0.0,WeatherDisplay:10.37,2013-08-06 23:37:00,
2013-08-06 16:42:00,87.1,38.4,29.75,East,90,10.4,10.4,18,0.00,CLR,OVC,0.00,0.0,WeatherDisplay:10.37,2013-08-06 23:42:00,
2013-08-06 16:47:00,86.7,38.1,29.75,SSW,202,5.8,6.0,18,0.00,CLR,OVC,0.00,0.0,WeatherDisplay:10.37,2013-08-06 23:47:00,
2013-08-06 16:52:00,86.9,38.3,29.75,WSW,248,8.1,8.1,18,0.00,CLR,OVC,0.00,0.0,WeatherDisplay:10.37,2013-08-06 23:52:00,
2013-08-06 16:57:00,86.7,38.1,29.75,SE,135,6.9,6.9,18,0.00,CLR,OVC,0.00,0.0,WeatherDisplay:10.37,2013-08-06 23:57:00,
2013-08-06 17:02:00,85.8,40.1,29.75,SW,225,6.9,6.9,20,0.00,CLR,OVC,0.00,0.0,WeatherDisplay:10.37,2013-08-07 00:02:00,
2013-08-06 17:07:00,85.1,38.2,29.75,SW,225,11.5,11.5,19,0.00,CLR,OVC,0.00,0.0,WeatherDisplay:10.37,2013-08-07 00:07:00,
2013-08-06 17:12:00,84.0,38.6,29.75,South,180,4.6,4.9,20,0.00,CLR,OVC,0.00,0.0,WeatherDisplay:10.37,2013-08-07 00:12:00,
2013-08-06 17:17:00,83.5,38.2,29.75,SSW,202,6.9,6.9,20,0.00,CLR,OVC,0.00,0.0,WeatherDisplay:10.37,2013-08-07 00:17:00,
2013-08-06 17:22:00,83.1,39.1,29.75,WSW,248,5.8,5.8,21,0.00,CLR,OVC,0.00,0.0,WeatherDisplay:10.37,2013-08-07 00:22:00,
2013-08-06 17:27:00,83.1,39.1,29.74,SSW,202,2.3,3.9,21,0.00,CLR,OVC,0.00,0.0,WeatherDisplay:10.37,2013-08-07 00:27:00,
2013-08-06 17:32:00,83.3,40.5,29.74,South,180,6.9,6.9,22,0.00,CLR,OVC,0.00,0.0,WeatherDisplay:10.37,2013-08-07 00:32:00,
2013-08-06 17:37:00,83.1,40.3,29.74,SSW,202,9.2,9.2,22,0.00,CLR,OVC,0.00,0.0,WeatherDisplay:10.37,2013-08-07 00:37:00,
2013-08-06 17:42:00,83.1,40.3,29.74,WSW,248,10.4,10.4,22,0.00,CLR,OVC,0.00,0.0,WeatherDisplay:10.37,2013-08-07 00:42:00,
2013-08-06 17:47:00,83.1,40.3,29.74,SW,225,6.9,6.9,22,0.00,CLR,OVC,0.00,0.0,WeatherDisplay:10.37,2013-08-07 00:47:00,
2013-08-06 17:52:00,82.8,40.0,29.74,SW,225,13.8,13.8,22,0.00,CLR,OVC,0.00,0.0,WeatherDisplay:10.37,2013-08-07 00:52:00,
2013-08-06 17:57:00,82.6,41.0,29.74,West,270,10.4,10.4,23,0.00,CLR,OVC,0.00,0.0,WeatherDisplay:10.37,2013-08-07 00:57:00,
2013-08-06 18:02:00,81.9,41.5,29.74,SW,225,9.2,9.2,24,0.00,CLR,OVC,0.00,0.0,WeatherDisplay:10.37,2013-08-07 01:02:00,
2013-08-06 18:07:00,81.5,41.2,29.75,South,180,8.1,8.1,24,0.00,CLR,OVC,0.00,0.0,WeatherDisplay:10.37,2013-08-07 01:07:00,
2013-08-06 18:12:00,81.0,41.8,29.75,SW,225,6.9,6.9,25,0.00,CLR,OVC,0.00,0.0,WeatherDisplay:10.37,2013-08-07 01:12:00,
2013-08-06 18:17:00,80.4,42.4,29.75,South,180,8.1,8.1,26,0.00,CLR,OVC,0.00,0.0,WeatherDisplay:10.37,2013-08-07 01:17:00,
2013-08-06 18:22:00,79.9,43.9,29.75,SSW,202,13.8,13.8,28,0.00,CLR,OVC,0.00,0.0,WeatherDisplay:10.37,2013-08-07 01:22:00,
2013-08-06 18:27:00,79.9,43.9,29.75,South,180,6.9,6.9,28,0.00,CLR,OVC,0.00,0.0,WeatherDisplay:10.37,2013-08-07 01:27:00,
2013-08-06 18:32:00,79.9,45.7,29.75,South,180,6.9,6.9,30,0.00,CLR,OVC,0.00,0.0,WeatherDisplay:10.37,2013-08-07 01:32:00,
2013-08-06 18:37:00,79.5,45.4,29.75,WSW,248,10.4,10.4,30,0.00,CLR,OVC,0.00,0.0,WeatherDisplay:10.37,2013-08-07 01:37:00,
2013-08-06 18:42:00,79.0,44.9,29.75,SSE,158,13.8,13.8,30,0.00,CLR,OVC,0.00,0.0,WeatherDisplay:10.37,2013-08-07 01:42:00,
2013-08-06 18:47:00,78.6,44.6,29.75,South,180,6.9,7.0,30,0.00,CLR,OVC,0.00,0.0,WeatherDisplay:10.37,2013-08-07 01:47:00,
2013-08-06 18:52:00,78.6,44.6,29.75,South,180,6.9,6.9,30,0.00,CLR,OVC,0.00,0.0,WeatherDisplay:10.37,2013-08-07 01:52:00,
2013-08-06 18:57:00,77.9,44.0,29.75,West,270,11.3,11.3,30,0.00,CLR,OVC,0.00,0.0,WeatherDisplay:10.37,2013-08-07 01:57:00,
2013-08-06 19:02:00,77.7,44.7,29.75,West,270,6.9,6.9,31,0.00,CLR,OVC,0.00,0.0,WeatherDisplay:10.37,2013-08-07 02:02:00,
2013-08-06 19:07:00,76.8,45.5,29.75,WSW,248,6.9,6.9,33,0.00,CLR,OVC,0.00,0.0,WeatherDisplay:10.37,2013-08-07 02:07:00,
2013-08-06 19:12:00,76.6,46.2,29.75,South,180,12.7,12.7,34,0.00,CLR,OVC,0.00,0.0,WeatherDisplay:10.37,2013-08-07 02:12:00,
2013-08-06 19:17:00,76.1,44.9,29.75,SW,225,9.2,9.2,33,0.00,CLR,OVC,0.00,0.0,WeatherDisplay:10.37,2013-08-07 02:17:00,
2013-08-06 19:22:00,75.9,44.7,29.75,WSW,248,8.1,8.1,33,0.00,CLR,OVC,0.00,0.0,WeatherDisplay:10.37,2013-08-07 02:22:00,
2013-08-06 19:27:00,75.2,44.9,29.76,SSE,158,5.8,6.6,34,0.00,CLR,OVC,0.00,0.0,WeatherDisplay:10.37,2013-08-07 02:27:00,
2013-08-06 19:32:00,74.8,44.6,29.76,SSW,202,11.5,11.5,34,0.00,CLR,OVC,0.00,0.0,WeatherDisplay:10.37,2013-08-07 02:32:00,
2013-08-06 19:37:00,74.7,45.2,29.76,SSE,158,12.7,12.7,35,0.00,CLR,OVC,0.00,0.0,WeatherDisplay:10.37,2013-08-07 02:37:00,
2013-08-06 19:42:00,74.3,45.6,29.76,SW,225,7.1,7.1,36,0.00,CLR,OVC,0.00,0.0,WeatherDisplay:10.37,2013-08-07 02:42:00,
2013-08-06 19:47:00,73.9,45.3,29.76,South,180,3.5,5.8,36,0.00,CLR,OVC,0.00,0.0,WeatherDisplay:10.37,2013-08-07 02:47:00,
2013-08-06 19:52:00,73.6,45.7,29.76,South,180,9.2,9.2,37,0.00,CLR,OVC,0.00,0.0,WeatherDisplay:10.37,2013-08-07 02:52:00,
2013-08-06 19:57:00,73.0,45.9,29.76,WSW,248,7.6,7.6,38,0.00,CLR,OVC,0.00,0.0,WeatherDisplay:10.37,2013-08-07 02:57:00,
2013-08-06 20:02:00,72.9,46.4,29.76,West,270,8.1,8.1,39,0.00,CLR,OVC,0.00,0.0,WeatherDisplay:10.37,2013-08-07 03:02:00,
2013-08-06 20:07:00,72.3,46.0,29.76,SW,225,10.4,10.4,39,0.00,CLR,OVC,0.00,0.0,WeatherDisplay:10.37,2013-08-07 03:07:00,
2013-08-06 20:12:00,72.0,45.6,29.76,South,180,6.9,6.9,39,0.00,CLR,OVC,0.00,0.0,WeatherDisplay:10.37,2013-08-07 03:12:00,
2013-08-06 20:17:00,71.4,47.1,29.76,SW,225,8.1,8.1,42,0.00,CLR,OVC,0.00,0.0,WeatherDisplay:10.37,2013-08-07 03:17:00,
2013-08-06 20:22:00,71.1,46.8,29.76,WSW,248,10.4,10.4,42,0.00,CLR,OVC,0.00,0.0,WeatherDisplay:10.37,2013-08-07 03:22:00,
2013-08-06 20:27:00,70.7,47.1,29.77,SSW,202,9.2,9.2,43,0.00,CLR,OVC,0.00,0.0,WeatherDisplay:10.37,2013-08-07 03:27:00,
2013-08-06 20:32:00,70.3,47.4,29.77,SW,225,6.9,7.2,44,0.00,CLR,OVC,0.00,0.0,WeatherDisplay:10.37,2013-08-07 03:32:00,
2013-08-06 20:37:00,69.6,47.9,29.77,South,180,9.2,9.2,46,0.00,CLR,OVC,0.00,0.0,WeatherDisplay:10.37,2013-08-07 03:37:00,
2013-08-06 20:42:00,69.6,48.5,29.77,SSW,202,11.5,11.5,47,0.00,CLR,OVC,0.00,0.0,WeatherDisplay:10.37,2013-08-07 03:42:00,
2013-08-06 20:47:00,69.3,47.6,29.77,SE,135,5.8,5.9,46,0.00,CLR,OVC,0.00,0.0,WeatherDisplay:10.37,2013-08-07 03:47:00,
2013-08-06 20:52:00,68.9,47.8,29.77,South,180,8.1,8.1,47,0.00,CLR,OVC,0.00,0.0,WeatherDisplay:10.37,2013-08-07 03:52:00,
2013-08-06 20:57:00,68.7,48.2,29.77,South,180,9.2,9.2,48,0.00,CLR,OVC,0.00,0.0,WeatherDisplay:10.37,2013-08-07 03:57:00,
2013-08-06 21:01:00,68.5,48.1,29.77,SW,225,9.2,9.2,48,0.00,CLR,OVC,0.00,0.0,WeatherDisplay:10.37,2013-08-07 04:01:00,
2013-08-06 21:06:00,68.4,47.9,29.78,SSW,202,8.2,8.2,48,0.00,CLR,OVC,0.00,0.0,WeatherDisplay:10.37,2013-08-07 04:06:00,
2013-08-06 21:11:00,68.2,47.7,29.78,South,180,10.4,10.4,48,0.00,CLR,OVC,0.00,0.0,WeatherDisplay:10.37,2013-08-07 04:11:00,
2013-08-06 21:16:00,67.8,48.0,29.78,SE,135,8.1,8.1,49,0.00,CLR,OVC,0.00,0.0,WeatherDisplay:10.37,2013-08-07 04:16:00,
2013-08-06 21:21:00,67.6,47.8,29.78,South,180,6.9,6.9,49,0.00,CLR,OVC,0.00,0.0,WeatherDisplay:10.37,2013-08-07 04:21:00,
2013-08-06 21:26:00,67.3,47.5,29.79,South,180,9.2,9.2,49,0.00,CLR,OVC,0.00,0.0,WeatherDisplay:10.37,2013-08-07 04:26:00,
2013-08-06 21:31:00,67.1,47.8,29.79,SW,225,8.5,8.5,50,0.00,CLR,OVC,0.00,0.0,WeatherDisplay:10.37,2013-08-07 04:31:00,
2013-08-06 21:36:00,66.9,47.7,29.79,SSW,202,9.2,9.2,50,0.00,CLR,OVC,0.00,0.0,WeatherDisplay:10.37,2013-08-07 04:36:00,
2013-08-06 21:41:00,66.7,47.5,29.79,SW,225,4.6,5.8,50,0.00,CLR,OVC,0.00,0.0,WeatherDisplay:10.37,2013-08-07 04:41:00,
2013-08-06 21:46:00,66.6,47.9,29.80,WSW,248,8.1,8.1,51,0.00,CLR,OVC,0.00,0.0,WeatherDisplay:10.37,2013-08-07 04:46:00,
2013-08-06 21:51:00,66.4,47.7,29.80,SSW,202,9.8,9.8,51,0.00,CLR,OVC,0.00,0.0,WeatherDisplay:10.37,2013-08-07 04:51:00,
2013-08-06 21:56:00,66.2,48.0,29.80,SW,225,6.9,6.9,52,0.00,CLR,OVC,0.00,0.0,WeatherDisplay:10.37,2013-08-07 04:56:00,
2013-08-06 22:01:00,65.8,48.2,29.80,SW,225,8.1,8.1,53,0.00,CLR,OVC,0.00,0.0,WeatherDisplay:10.37,2013-08-07 05:01:00,
2013-08-06 22:06:00,65.7,47.5,29.81,SW,225,6.9,6.9,52,0.00,CLR,OVC,0.00,0.0,WeatherDisplay:10.37,2013-08-07 05:06:00,
2013-08-06 22:11:00,65.5,47.9,29.81,South,180,8.1,8.1,53,0.00,CLR,OVC,0.00,0.0,WeatherDisplay:10.37,2013-08-07 05:11:00,
2013-08-06 22:16:00,65.1,48.1,29.81,WSW,248,9.2,9.2,54,0.00,CLR,OVC,0.00,0.0,WeatherDisplay:10.37,2013-08-07 05:16:00,
2013-08-06 22:21:00,65.1,48.1,29.81,South,180,8.1,8.1,54,0.00,CLR,OVC,0.00,0.0,WeatherDisplay:10.37,2013-08-07 05:21:00,
2013-08-06 22:26:00,64.8,48.2,29.82,South,180,9.2,9.2,55,0.00,CLR,OVC,0.00,0.0,WeatherDisplay:10.37,2013-08-07 05:26:00,
2013-08-06 22:31:00,64.8,48.2,29.82,South,180,8.1,8.1,55,0.00,CLR,OVC,0.00,0.0,WeatherDisplay:10.37,2013-08-07 05:31:00,
2013-08-06 22:36:00,64.6,48.0,29.82,SW,225,10.4,10.4,55,0.00,CLR,OVC,0.00,0.0,WeatherDisplay:10.37,2013-08-07 05:36:00,
2013-08-06 22:41:00,64.4,48.4,29.82,South,180,4.6,6.6,56,0.00,CLR,OVC,0.00,0.0,WeatherDisplay:10.37,2013-08-07 05:41:00,
2013-08-06 22:46:00,64.0,48.5,29.82,South,180,8.1,8.1,57,0.00,CLR,OVC,0.00,0.0,WeatherDisplay:10.37,2013-08-07 05:46:00,
2013-08-06 22:51:00,64.0,48.5,29.82,SW,225,8.3,8.3,57,0.00,CLR,OVC,0.00,0.0,WeatherDisplay:10.37,2013-08-07 05:51:00,
2013-08-06 22:56:00,63.9,48.8,29.82,SW,225,10.4,10.4,58,0.00,CLR,OVC,0.00,0.0,WeatherDisplay:10.37,2013-08-07 05:56:00,
2013-08-06 23:01:00,63.7,48.6,29.82,SSW,202,9.2,9.2,58,0.00,CLR,OVC,0.00,0.0,WeatherDisplay:10.37,2013-08-07 06:01:00,
2013-08-06 23:06:00,63.5,48.9,29.82,SE,135,12.7,12.7,59,0.00,CLR,OVC,0.00,0.0,WeatherDisplay:10.37,2013-08-07 06:06:00,
2013-08-06 23:11:00,63.3,48.7,29.82,SSW,202,11.5,11.5,59,0.00,CLR,OVC,0.00,0.0,WeatherDisplay:10.37,2013-08-07 06:11:00,
2013-08-06 23:16:00,63.3,48.7,29.82,SE,135,8.1,8.1,59,0.00,CLR,OVC,0.00,0.0,WeatherDisplay:10.37,2013-08-07 06:16:00,
2013-08-06 23:21:00,63.1,49.0,29.82,South,180,12.7,12.7,60,0.00,CLR,OVC,0.00,0.0,WeatherDisplay:10.37,2013-08-07 06:21:00,
2013-08-06 23:26:00,63.0,48.9,29.82,WSW,248,3.5,5.4,60,0.00,CLR,OVC,0.00,0.0,WeatherDisplay:10.37,2013-08-07 06:26:00,
2013-08-06 23:31:00,63.0,48.9,29.82,SSW,202,5.8,5.8,60,0.00,CLR,OVC,0.00,0.0,WeatherDisplay:10.37,2013-08-07 06:31:00,
2013-08-06 23:36:00,63.0,48.9,29.82,WSW,248,4.6,4.6,60,0.00,CLR,OVC,0.00,0.0,WeatherDisplay:10.37,2013-08-07 06:36:00,
2013-08-06 23:41:00,62.8,48.7,29.82,NW,315,6.9,6.9,60,0.00,CLR,OVC,0.00,0.0,WeatherDisplay:10.37,2013-08-07 06:41:00,
2013-08-06 23:46:00,62.8,48.7,29.83,South,180,6.9,6.9,60,0.00,CLR,OVC,0.00,0.0,WeatherDisplay:10.37,2013-08-07 06:46:00,
2013-08-06 23:51:00,62.6,49.0,29.83,SSE,158,8.1,8.1,61,0.00,CLR,OVC,0.00,0.0,WeatherDisplay:10.37,2013-08-07 06:51:00,
2013-08-06 23:56:00,62.6,49.4,29.83,South,180,8.1,8.1,62,0.00,CLR,OVC,0.00,0.0,WeatherDisplay:10.37,2013-08-07 06:56:00,